Location: Noverd
(38.0910°N, 121.6877°W)
Time: 14:15:18
(UTC+00:00)

Envisat - Pass Details

Date: 17 April 2026
Orbit: 761 x 762 km, 98.4° (Epoch: 15 May)

Event Time Altitude Azimuth Distance (km) Brightness Sun altitude
Rises 10:06:21 0° 22° (NNE) 3,230 7.2 -33.9°
Reaches altitude 10° 10:08:49 10° 30° (NNE) 2,300 6.3 -33.6°
Enters shadow 10:12:38 35° 75° (ENE) 1,219 4.3 -33.1°
